RH
13 12 12 12 11 10 10 9 9 11 13 15 13 11 10 8 7 6 6 9 14 20 24 25 25 26 28 27 23 21 18 15 15 12 9 10 11 9 7 7 9 9 8 9 12 16 13 11 13 13 13 18 24 24 25 26 26 26 28 31 30 26 23 24 23 18 18 14 11 11 9 11 10 31 59 66 73 76 75 77 74 70 66 74 89 95 96 96
12 12 12 12 12 12 11 10 10 9 10 13 15 15 14 14 13 11 9 8 10 14 20 24 26 28 29 28 25 22 19 17 14 11 13 19 19 15 10 8 7 9 11 10 9 12 12 9 10 12 13 21 28 27 26 25 25 28 29 29 26 24 20 17 17 14 13 12 11 11 10 10 8 19 44 68 81 80 88 96 89 84 85 92 98 98 100 97
12 12 11 12 12 11 12 12 12 11 10 10 12 15 16 17 17 17 15 11 9 9 13 18 24 28 30 30 26 24 21 16 13 17 25 25 20 16 14 10 7 10 15 12 9 10 11 9 9 11 15 25 31 27 26 24 25 27 26 27 23 19 17 13 13 12 11 11 12 12 9 11 9 11 42 76 83 82 94 97 93 100 100 98 100 100 101 98
11 11 11 11 11 11 11 11 11 12 12 11 10 13 15 18 20 20 20 17 14 10 9 11 17 23 29 31 27 25 21 17 21 28 31 26 18 15 14 13 10 11 16 13 8 9 12 11 9 12 21 30 31 28 29 25 22 23 25 28 22 15 14 13 11 10 10 10 11 11 10 12 7 16 50 73 73 80 88 75 64 82 99 99 101 100 100 99
11 11 11 11 11 10 10 10 11 11 11 11 11 11 12 15 17 20 22 23 19 14 11 9 10 14 21 28 28 26 21 20 31 33 29 26 20 15 14 13 12 12 13 11 8 8 14 15 12 18 28 33 31 31 31 26 21 22 24 22 17 14 13 13 11 10 10 10 11 11 12 10 8 30 59 63 60 65 63 53 46 56 76 90 98 100 100 98
11 10 11 10 10 10 10 10 10 10 10 10 11 11 11 12 13 15 19 24 25 20 14 11 9 10 13 21 24 23 21 18 23 23 21 24 22 19 17 14 13 13 10 9 8 8 15 21 22 27 31 32 33 34 31 25 24 28 28 21 18 16 14 13 12 12 10 10 12 11 11 9 8 25 51 56 44 36 37 49 62 69 76 86 97 100 100 98
10 10 10 10 10 10 10 10 10 10 10 10 10 10 10 11 11 12 13 18 25 25 22 17 13 11 10 15 17 19 23 17 15 22 23 24 25 22 23 22 17 14 9 8 7 7 17 27 28 28 30 32 33 32 28 25 23 27 28 22 19 17 15 15 14 13 11 10 10 10 9 11 10 8 31 46 25 19 38 52 67 87 96 97 100 100 99 99
10 10 10 10 10 9 10 9 9 9 9 10 10 9 9 10 10 11 12 13 16 22 27 27 22 19 14 13 14 17 19 9 12 28 30 27 29 26 27 28 22 17 12 8 7 7 18 30 29 26 31 32 30 29 26 26 25 25 25 21 19 18 16 15 15 13 11 10 8 10 10 10 11 6 20 34 23 30 49 54 68 90 102 100 99 100 100 100
10 10 9 10 9 9 10 9 9 9 9 9 9 9 9 9 9 10 10 11 12 14 20 26 28 26 23 18 17 17 10 8 19 32 33 31 31 30 28 27 24 21 15 10 8 8 18 28 27 25 30 29 27 28 24 27 29 24 22 20 18 17 15 14 13 10 9 9 7 10 11 9 8 7 16 32 45 59 62 62 76 93 100 100 100 100 100 100
10 10 10 10 9 10 9 9 9 9 9 9 9 9 9 9 9 9 9 10 11 11 13 18 21 23 25 24 25 21 7 15 35 36 35 33 30 31 29 27 25 21 17 11 8 8 12 22 26 24 26 25 23 25 23 26 27 20 18 17 15 14 12 11 10 9 8 8 8 9 11 9 7 6 13 38 66 74 71 79 88 95 100 100 100 100 98 100
10 10 10 10 10 10 9 9 9 8 9 8 8 8 8 9 8 8 9 9 9 10 11 11 14 16 19 24 32 26 7 15 36 37 36 32 30 32 29 28 25 21 19 12 8 7 8 18 27 25 25 24 20 20 18 19 19 14 14 13 13 12 10 11 9 9 8 7 8 8 10 8 9 9 9 38 74 75 72 91 99 98 100 99 98 96 96 100
11 10 10 9 10 9 9 10 8 9 8 8 9 8 8 8 8 9 8 9 9 9 10 10 11 11 15 22 25 19 10 16 28 32 35 33 32 33 31 31 28 23 21 16 11 6 8 20 26 24 24 22 21 21 16 15 14 11 13 14 15 14 12 12 9 8 8 8 7 7 12 11 11 11 8 39 78 80 80 96 102 99 99 101 98 96 98 100
11 10 10 10 9 9 9 9 8 8 8 8 8 7 8 7 8 8 7 9 8 8 9 9 10 10 18 23 13 8 10 15 19 20 27 33 33 32 33 33 29 26 22 19 15 6 9 21 25 24 23 22 23 22 17 16 14 12 14 14 15 17 16 13 10 9 8 9 8 7 16 18 17 10 10 47 81 86 94 100 100 101 100 100 100 100 100 99
9 8 9 8 8 9 8 8 8 8 7 8 7 7 8 7 8 7 8 8 7 10 8 9 12 13 25 22 4 6 9 9 12 11 16 26 29 28 32 33 29 26 22 20 19 10 10 19 23 23 22 23 22 20 20 17 15 15 14 17 19 19 21 18 12 12 10 9 8 8 17 18 18 10 9 51 81 83 97 102 98 101 100 100 100 100 100 100
7 8 7 7 8 7 7 8 7 8 7 7 7 7 7 6 7 6 7 7 7 9 7 12 15 21 41 29 3 13 20 15 12 9 13 19 23 23 27 31 27 24 23 22 22 15 10 14 20 22 21 21 19 20 24 21 23 23 16 25 32 21 21 20 13 14 11 9 9 8 18 17 15 11 6 44 78 78 92 100 99 101 99 101 100 99 101 100
7 7 7 7 7 6 7 7 7 7 6 7 6 7 7 7 7 6 7 7 7 9 10 20 27 39 55 39 15 19 24 23 20 18 18 15 18 21 24 31 27 24 24 23 25 20 15 15 17 20 19 20 20 20 23 25 32 36 25 29 37 25 23 22 14 15 10 9 11 8 17 16 14 13 5 35 73 76 85 96 96 100 100 100 100 100 101 100
7 6 7 8 7 8 7 5 6 6 6 7 6 6 6 5 5 6 7 6 8 15 22 34 51 60 51 30 20 18 16 25 29 28 24 16 17 22 27 32 28 26 26 23 25 23 21 20 19 25 26 23 26 26 27 28 34 41 33 31 36 28 25 24 17 16 12 10 12 10 14 14 13 14 7 28 64 71 76 87 90 96 100 100 100 100 100 100
7 6 7 8 8 8 7 6 7 6 7 6 6 8 9 12 16 16 18 20 25 39 47 53 64 60 37 23 25 23 21 29 32 29 27 22 21 25 28 30 29 29 27 26 26 23 24 22 20 32 34 24 26 29 31 32 31 32 29 30 36 31 25 24 20 17 13 11 13 13 14 15 13 13 9 20 51 66 67 73 81 91 99 100 100 100 100 101
6 7 7 7 8 8 7 7 6 6 7 5 11 19 21 28 35 42 51 53 57 65 65 64 60 43 27 25 26 26 27 27 28 25 24 25 24 26 27 28 32 30 26 28 28 23 23 24 23 31 33 30 32 28 24 26 26 23 25 30 32 29 24 21 19 16 13 12 15 15 14 15 12 12 11 12 34 56 57 63 78 92 100 99 100 101 100 100
7 7 6 7 8 7 7 7 6 9 6 6 22 31 31 34 36 49 60 56 53 51 47 47 46 37 30 26 21 24 26 22 25 22 20 26 25 25 28 30 32 28 28 33 32 24 21 30 34 32 35 40 42 37 28 24 24 22 23 26 25 24 23 19 18 16 14 16 18 17 16 16 13 13 13 9 26 51 55 66 86 96 100 100 100 100 100 100
7 5 7 7 8 7 8 8 7 9 5 11 31 36 36 40 38 42 44 39 32 30 33 30 29 32 26 20 19 22 25 23 22 19 20 28 28 27 30 31 30 32 34 31 29 25 22 34 36 33 41 45 44 44 39 30 27 26 25 25 25 24 22 18 17 17 15 19 23 21 19 19 16 15 14 12 23 40 51 71 90 98 100 100 100 100 100 99
6 6 7 6 8 8 7 8 8 8 6 16 34 36 38 50 50 47 46 47 38 28 31 29 28 29 19 15 18 20 31 33 24 17 20 28 29 27 26 27 29 35 35 29 29 29 29 37 33 31 41 41 38 41 40 36 32 32 29 28 29 25 22 19 20 22 18 20 27 26 25 25 21 19 19 18 19 23 38 60 77 93 102 100 99 99 95 92
6 6 6 6 8 7 8 9 7 7 9 23 37 33 36 50 49 46 51 57 46 29 26 27 30 28 17 14 17 25 36 36 30 19 18 26 28 25 24 25 30 33 34 32 34 36 36 36 29 29 34 32 33 36 37 37 37 39 35 32 31 25 24 24 23 28 25 25 29 27 28 28 25 24 21 18 16 13 25 47 66 89 100 96 93 92 88 83
7 5 5 7 6 6 9 7 6 13 20 33 38 27 32 46 43 41 50 56 50 37 28 23 26 25 17 15 18 27 31 28 28 19 16 25 27 26 24 25 31 33 33 32 33 36 34 28 24 28 33 31 32 35 37 37 37 45 43 35 32 26 25 25 25 30 31 31 30 26 32 37 33 30 25 22 21 16 25 48 74 96 98 93 93 91 90 84
6 5 6 5 6 7 6 7 15 22 23 26 26 21 25 36 37 35 45 59 59 46 33 27 30 28 20 22 23 23 28 30 26 15 14 23 25 26 24 23 30 35 33 30 31 35 31 24 22 26 31 31 32 34 37 40 38 40 42 36 30 27 26 25 24 28 31 32 30 26 35 43 36 31 30 29 25 25 38 59 84 101 99 97 98 97 98 91
6 5 5 5 7 6 5 13 19 17 17 20 22 22 19 25 34 32 49 79 75 51 39 34 31 26 20 25 27 23 29 31 20 10 13 20 23 24 25 24 27 32 33 28 28 32 28 23 21 25 31 30 31 32 32 37 36 34 41 38 28 26 28 28 27 29 34 38 35 29 33 37 29 28 35 40 44 50 59 72 90 100 100 100 99 100 102 93
8 6 5 6 6 5 8 12 13 19 30 30 25 22 14 19 28 27 51 83 72 46 39 32 25 23 19 21 24 23 25 23 18 14 13 19 22 21 26 29 24 25 24 24 31 31 24 23 24 25 30 30 31 30 29 34 32 35 44 40 30 28 30 30 30 32 39 39 35 34 33 29 30 35 40 49 69 84 81 82 96 101 99 101 100 100 101 89
10 7 6 7 6 8 10 6 11 27 38 32 24 18 13 19 25 34 60 65 41 29 30 26 24 21 18 21 22 20 19 20 24 20 12 18 22 20 27 29 25 25 20 25 38 33 23 25 27 26 28 31 28 24 25 28 27 28 33 32 27 26 29 31 32 36 40 32 27 37 33 24 40 56 50 52 76 96 95 91 99 101 98 101 100 100 101 89
9 8 8 8 8 11 11 8 11 26 36 34 29 21 13 17 21 41 69 56 25 22 24 23 24 18 18 25 23 18 18 19 22 22 15 19 23 21 26 26 23 24 18 22 32 28 22 21 21 23 27 28 23 20 22 24 25 21 21 25 25 27 29 29 33 32 32 30 27 37 35 22 43 66 59 58 69 82 95 97 95 98 100 101 99 100 101 95
9 9 12 12 11 12 13 12 12 23 34 33 32 22 11 26 45 55 63 50 31 24 20 20 20 15 17 24 24 20 19 18 20 22 19 21 23 20 23 22 19 25 25 23 26 24 20 17 17 19 20 22 18 18 19 19 20 19 22 23 22 35 38 37 53 43 28 38 36 36 39 27 38 64 67 62 60 67 91 100 93 94 98 99 100 101 99 100
8 13 20 18 11 11 14 14 18 28 31 27 30 22 12 37 69 70 55 42 35 28 21 22 18 13 15 20 24 21 18 20 22 24 24 25 25 23 25 24 23 32 36 30 31 34 27 19 21 19 15 17 16 16 19 19 18 18 25 24 24 44 43 39 61 48 28 45 44 39 45 32 34 58 71 72 70 74 90 97 94 93 95 96 100 101 98 102
12 20 24 16 13 23 28 23 25 31 28 23 22 24 33 44 54 64 58 38 32 33 27 22 17 15 14 15 25 25 20 22 24 26 29 29 32 31 29 34 36 37 43 46 43 41 34 26 24 19 15 15 15 20 22 20 20 20 29 31 30 40 36 41 60 48 38 48 44 42 42 34 44 61 74 82 83 85 86 87 91 91 92 93 97 100 100 101
19 22 18 19 28 37 37 29 22 22 22 18 19 36 56 53 45 57 60 41 31 31 24 20 17 17 14 16 32 34 23 26 30 29 28 28 35 34 28 35 38 33 47 57 46 37 36 34 28 20 18 16 15 21 24 24 25 21 27 32 33 38 36 48 62 50 42 38 34 42 34 31 57 72 76 86 90 91 85 82 87 88 89 93 97 100 101 100
22 19 19 33 40 33 27 23 19 20 16 13 30 48 44 39 51 62 62 53 39 26 20 21 18 15 14 18 33 38 34 40 39 32 31 31 36 42 36 33 32 32 42 48 43 41 39 39 36 24 18 18 17 18 21 27 27 21 26 27 33 47 46 47 52 42 37 37 40 47 33 38 70 78 75 82 89 92 88 86 89 88 92 96 98 101 100 99
22 21 30 46 45 33 27 19 17 23 20 23 50 60 43 42 58 64 64 54 36 24 22 21 15 17 22 21 25 31 36 47 49 42 43 39 39 49 44 32 32 34 37 44 50 43 32 37 40 25 17 17 16 17 17 22 26 26 28 24 24 39 43 45 51 48 48 52 58 62 56 66 83 77 73 80 83 87 91 93 95 94 97 100 100 101 100 100
31 27 37 54 52 46 41 25 23 33 33 44 57 54 56 59 50 48 52 38 27 27 26 23 18 21 32 29 24 24 26 42 54 51 49 45 41 48 44 32 31 29 31 49 55 38 27 37 38 25 21 18 13 17 16 15 28 35 28 24 26 28 33 41 46 49 51 51 60 74 79 84 85 76 78 85 84 87 92 94 97 97 96 97 99 100 100 101
47 41 41 56 58 57 52 35 34 38 35 52 65 59 68 65 42 41 41 28 27 26 22 30 29 24 28 28 28 28 25 40 52 47 51 55 49 51 52 42 35 31 30 38 43 37 31 36 36 25 19 18 13 14 16 13 23 32 25 25 26 22 34 51 53 55 54 47 58 79 86 87 87 86 88 90 91 92 92 91 95 98 96 95 98 99 99 100
57 56 46 54 60 61 59 49 45 39 36 67 91 82 75 62 40 36 31 24 31 28 24 34 34 26 24 23 31 36 26 35 51 53 59 62 52 55 63 53 43 42 34 29 38 45 38 35 42 34 20 23 22 16 24 26 20 20 22 24 26 30 43 49 46 50 51 50 63 77 82 87 90 93 93 90 95 96 91 91 95 98 100 99 95 95 99 100
55 61 52 54 58 57 59 59 55 48 50 77 92 74 59 54 43 34 33 33 33 31 32 33 29 29 28 22 31 38 28 33 55 61 56 57 55 57 62 56 54 56 41 31 40 48 43 37 45 47 29 23 32 32 36 41 32 24 23 21 29 47 53 42 37 45 47 57 74 75 78 89 91 94 94 88 93 98 95 94 97 98 101 100 96 96 99 100
47 58 57 56 58 57 60 64 64 64 66 74 79 68 53 50 45 37 39 40 32 29 35 33 26 29 31 29 30 32 29 38 63 67 59 66 67 59 61 60 62 62 45 36 44 47 49 44 45 56 40 21 36 45 39 41 38 29 27 26 29 40 44 38 41 46 46 62 80 79 82 94 93 93 97 94 93 97 98 95 96 99 100 100 100 99 100 100
44 59 60 56 58 60 61 67 70 73 79 81 80 75 61 52 51 44 37 35 32 28 29 30 28 28 31 34 32 29 28 37 59 68 67 73 65 52 56 58 59 58 48 49 52 48 54 54 49 59 51 34 43 45 34 36 37 36 44 49 46 42 39 37 40 49 61 74 80 79 84 92 94 95 99 99 96 94 96 95 96 100 100 100 101 99 100 100
56 64 61 58 63 59 58 73 80 74 80 83 73 64 57 50 49 44 35 32 31 29 29 31 32 32 32 32 30 31 32 33 44 57 64 68 62 52 51 49 50 52 54 64 61 50 60 65 55 60 57 44 43 39 31 33 39 48 58 65 66 59 47 42 48 58 64 68 73 81 86 84 89 97 97 97 95 92 94 95 96 100 99 100 101 99 100 100
56 58 58 60 62 57 59 78 88 81 78 72 58 50 49 47 45 41 39 38 35 35 38 37 35 35 33 31 31 36 38 32 35 52 61 62 58 53 48 45 47 49 53 63 62 56 64 65 57 64 68 55 43 36 34 37 46 57 65 69 76 77 63 54 67 76 67 64 70 76 82 85 92 99 96 93 95 94 95 97 98 100 100 101 101 100 100 100
47 51 60 64 61 56 59 67 75 81 78 67 62 58 50 46 46 44 44 43 38 40 45 44 42 40 38 37 37 43 45 37 37 48 55 55 51 45 43 43 46 50 50 53 59 58 59 65 65 65 65 56 46 42 43 48 53 59 68 71 74 87 81 60 62 72 63 63 68 65 77 93 98 97 93 92 95 97 97 97 95 95 97 98 99 99 100 101
55 58 60 63 61 59 58 59 67 79 78 73 74 68 57 51 45 42 45 44 39 41 47 48 45 44 47 50 49 51 51 45 44 49 51 53 48 39 43 48 51 57 57 52 55 54 57 73 80 74 68 64 65 67 64 63 63 63 70 75 75 88 89 68 57 57 51 56 65 71 86 99 97 92 91 93 97 96 92 88 87 87 88 90 93 95 98 100
60 61 56 54 57 57 52 49 57 67 70 76 75 64 61 62 49 39 41 44 41 41 44 45 44 47 54 60 63 60 58 56 55 55 54 55 51 41 43 54 58 58 58 51 50 60 73 83 86 85 80 73 75 77 67 67 76 75 72 76 81 86 87 79 63 54 56 62 69 82 94 100 99 93 90 94 96 93 89 86 85 85 84 87 89 90 92 97
55 56 52 46 50 58 52 43 51 59 60 68 68 58 61 67 59 48 43 44 43 42 46 45 44 51 56 61 67 62 61 68 63 55 54 52 52 48 43 52 58 54 54 51 52 73 92 87 80 82 76 68 72 73 66 69 80 82 80 82 85 85 88 87 73 66 69 62 66 87 96 98 100 93 91 96 91 84 86 85 84 84 82 84 86 86 88 92
50 49 47 43 51 65 59 45 52 61 59 61 63 60 62 66 66 60 50 49 48 44 50 54 49 51 52 55 64 59 58 67 63 61 63 51 52 63 59 62 64 55 57 61 62 81 97 88 81 84 79 76 80 77 76 78 78 82 88 88 88 88 90 94 94 93 81 59 67 93 97 95 99 94 93 93 79 74 80 80 79 79 78 80 82 83 84 84
49 49 48 47 49 58 57 47 52 60 61 65 66 60 59 61 65 62 53 59 68 58 54 58 55 52 51 57 67 61 54 54 52 61 65 49 54 70 69 72 70 54 63 82 80 84 93 89 88 92 89 87 87 83 82 82 81 84 86 86 89 91 91 94 98 97 87 76 85 97 95 96 99 93 90 83 71 72 76 74 73 72 71 73 73 73 74 74
50 51 52 52 51 51 50 48 55 63 64 66 64 55 56 61 62 60 53 55 67 64 57 58 57 55 56 59 60 54 49 47 47 54 55 46 55 64 60 68 65 50 68 93 87 80 86 86 87 92 94 91 88 87 84 81 82 85 85 84 87 89 91 94 95 94 95 95 97 96 96 101 97 87 81 75 71 75 76 72 70 67 67 69 67 67 68 67
53 54 54 58 61 55 44 43 59 74 70 63 63 59 58 58 55 57 56 47 49 56 55 55 58 59 62 60 55 50 48 44 43 45 42 38 45 48 48 56 51 44 71 95 87 81 89 90 88 92 97 95 90 89 88 84 83 86 88 89 90 93 95 95 94 95 96 97 98 98 100 101 93 81 76 75 76 78 78 75 69 66 67 68 68 69 67 64
54 58 52 52 57 51 48 56 69 77 64 51 59 63 56 56 56 55 53 43 38 42 46 50 52 53 57 57 50 44 39 33 32 33 31 30 33 32 34 41 37 40 71 98 97 90 90 92 94 94 95 96 97 95 91 88 87 88 89 90 93 97 97 94 95 95 93 94 97 100 98 94 86 78 78 82 82 81 81 75 70 70 71 69 68 67 65 63
Wind_Speed
7 7 7 7 6 6 6 6 7 7 7 7 7 8 8 8 8 9 9 10 11 11 12 11 12 12 12 15 16 17 19 19 19 18 17 11 7 11 11 8 9 11 11 11 12 11 11 12 13 14 14 12 10 9 10 10 7 4 2 2 3 4 5 4 5 5 4 6 7 14 17 9 11 11 5 9 13 15 11 7 9 9 5 14 16 24 37 33
7 7 7 8 7 7 7 7 7 7 7 7 7 7 7 8 9 9 9 10 11 11 12 13 13 13 14 16 17 19 20 21 22 17 10 5 4 8 11 10 7 10 11 10 11 11 10 12 15 15 15 11 8 8 8 9 10 7 3 2 5 5 5 4 5 5 5 8 11 17 17 10 13 12 2 1 5 8 9 8 9 12 13 18 21 31 36 33
8 8 9 9 8 8 8 8 8 8 8 7 7 7 7 8 8 9 10 10 10 11 13 13 14 14 15 16 17 19 20 23 21 8 1 4 6 5 8 10 7 8 10 9 10 10 8 10 15 15 14 10 8 9 7 7 9 10 6 2 6 5 6 8 9 11 15 17 12 15 16 13 20 13 3 3 4 3 3 7 9 15 21 25 30 35 34 35
9 9 9 9 9 10 10 9 9 9 9 8 8 7 8 8 8 9 9 10 11 11 12 13 14 14 15 17 17 18 21 21 10 3 3 4 7 7 4 6 6 7 9 10 10 10 8 10 13 14 12 7 7 7 6 8 7 6 8 5 5 3 6 12 13 16 21 22 14 14 15 14 19 12 5 7 6 2 5 14 15 19 28 33 36 35 35 37
9 9 10 10 10 10 11 11 10 10 10 10 10 9 9 9 9 9 9 10 11 11 12 13 14 14 15 16 16 17 17 11 1 5 2 3 5 7 5 2 5 7 9 10 10 11 11 12 13 12 9 4 4 5 5 10 8 2 6 10 8 4 7 13 15 18 22 23 18 12 10 12 13 6 11 13 6 5 12 19 21 25 32 37 40 37 36 38
10 10 10 10 11 11 12 12 12 12 12 12 11 11 10 10 10 10 10 10 11 12 12 12 12 14 15 15 16 16 10 3 3 1 3 3 2 5 6 1 4 6 9 11 12 13 14 13 13 10 7 2 4 5 4 8 8 3 6 10 11 10 9 14 20 22 24 20 16 13 14 16 10 3 12 14 7 10 15 17 19 24 30 37 42 39 38 38
10 10 10 10 11 12 12 12 13 13 13 13 12 12 12 12 12 11 11 10 11 11 11 12 12 12 14 15 16 14 11 10 5 3 5 3 1 2 4 2 2 5 9 12 13 15 17 15 12 10 5 2 3 5 6 9 7 5 6 7 11 15 13 19 24 25 27 21 21 25 19 16 11 6 7 13 12 12 11 14 18 25 30 35 40 39 39 38
10 10 10 11 11 12 13 13 13 13 13 13 13 13 13 13 13 13 12 11 12 12 12 12 11 12 13 13 13 13 15 12 4 3 4 3 3 1 3 4 3 5 7 11 14 16 18 15 13 10 4 3 4 3 7 7 4 6 7 8 10 14 17 22 23 23 26 24 26 26 15 17 20 9 5 11 14 11 11 14 20 27 30 34 38 37 36 34
10 11 11 11 12 12 13 13 14 14 14 14 14 14 14 14 14 14 13 12 13 12 13 12 12 13 12 13 11 11 12 7 2 5 5 5 3 1 4 5 5 6 6 10 13 15 18 17 16 12 5 5 6 6 6 2 3 6 9 10 9 13 18 20 19 19 22 22 20 13 10 20 22 8 3 6 7 10 14 18 25 30 30 33 36 36 36 34
11 11 11 12 12 12 13 13 14 14 14 15 15 15 15 15 16 15 14 13 14 14 14 13 13 13 13 13 7 4 6 2 2 4 7 7 3 3 5 7 7 7 6 10 13 17 20 19 17 13 5 4 5 7 6 4 7 9 9 11 10 14 19 18 16 19 20 18 16 9 10 21 16 3 3 3 10 15 18 23 27 30 31 32 34 36 37 36
12 11 12 12 12 12 13 13 14 14 15 15 15 15 16 16 16 16 15 14 15 15 15 14 14 15 14 13 8 6 6 4 4 4 7 8 6 5 6 7 9 8 7 9 13 17 20 18 15 10 4 3 3 7 6 5 9 12 10 9 11 12 14 13 12 17 14 10 15 12 10 18 11 3 6 10 17 19 22 27 27 30 30 31 33 36 35 32
12 12 12 12 13 13 13 14 14 15 15 15 15 15 15 16 17 16 16 15 16 16 16 15 14 15 14 15 16 8 4 5 6 6 9 9 8 6 6 7 9 9 8 8 10 14 19 18 14 11 5 3 2 4 5 8 11 10 6 5 8 9 8 9 9 13 9 5 13 9 5 11 6 6 9 15 23 22 25 29 28 28 27 29 32 32 28 24
13 13 13 13 13 14 14 14 15 15 15 15 15 15 16 17 17 17 16 16 17 16 16 16 15 16 13 16 16 6 6 11 12 14 13 11 9 7 6 8 9 9 9 8 8 10 18 19 15 13 8 4 3 5 9 14 12 7 3 2 5 7 7 6 5 9 6 5 10 6 2 8 6 13 11 17 26 24 24 27 27 27 26 27 29 27 22 20
13 13 14 14 14 14 15 15 16 16 15 15 15 15 16 17 18 17 16 16 17 16 17 16 15 14 12 18 18 12 14 17 20 23 19 15 13 9 8 9 9 8 8 7 6 6 15 20 16 12 9 8 9 10 10 9 5 3 3 2 2 2 5 7 4 3 2 5 7 9 3 7 7 15 13 19 28 26 24 24 26 27 26 26 26 24 21 19
14 14 14 14 14 15 15 16 16 16 16 16 15 15 16 17 18 17 17 17 17 16 16 15 15 13 13 22 22 12 12 14 18 20 18 18 16 12 10 8 7 6 7 7 5 5 10 16 15 11 11 12 10 6 4 4 3 2 3 4 3 2 4 8 6 3 4 6 4 8 4 6 6 15 15 19 28 28 25 24 26 27 26 25 24 22 21 20
14 14 14 14 14 14 15 15 16 16 16 16 15 15 16 17 18 17 18 18 17 16 14 13 12 9 9 15 12 5 7 10 10 10 12 18 17 13 9 8 7 7 7 7 5 5 8 12 12 12 13 9 4 3 2 4 4 3 1 4 4 3 4 6 6 4 6 5 1 4 4 4 5 13 12 18 29 27 24 24 26 27 25 25 24 23 23 22
15 14 14 14 14 14 15 15 15 16 16 16 15 14 16 17 16 16 17 17 16 13 10 9 7 6 10 11 8 8 7 5 4 5 6 15 17 11 8 10 9 8 9 9 9 10 10 9 8 9 9 4 2 3 0 4 5 4 2 2 3 4 4 4 5 5 1 2 3 2 4 5 7 11 8 16 29 25 21 23 24 25 25 25 25 26 26 26
15 15 14 14 14 14 14 14 14 14 15 15 15 15 14 13 13 13 13 13 10 5 5 8 3 3 9 11 9 9 4 0 2 6 6 10 15 11 9 10 9 9 9 9 10 11 10 7 4 2 2 1 2 4 3 5 3 1 1 1 3 3 4 5 4 5 5 2 4 4 4 8 10 11 8 14 27 23 21 22 23 26 26 24 26 28 28 27
15 15 14 14 14 14 14 14 14 14 14 13 13 13 9 10 10 7 6 5 5 3 2 6 8 3 8 11 12 10 8 8 10 10 8 8 14 14 11 11 11 10 6 2 5 7 8 4 2 2 3 3 3 5 6 5 5 3 3 3 3 4 5 7 5 4 6 6 6 6 6 9 11 12 9 10 24 25 20 18 23 26 25 24 27 29 28 28
15 15 14 14 13 13 13 13 13 14 15 13 11 9 7 11 7 3 8 10 13 12 12 13 14 17 21 22 21 18 15 16 15 12 8 7 13 15 14 14 11 8 4 4 4 4 6 4 4 6 5 5 6 7 7 4 1 1 2 3 4 5 8 9 5 4 5 5 6 7 6 9 11 13 11 8 19 20 14 16 21 25 25 28 30 29 29 28
16 15 14 14 13 13 12 13 13 13 15 12 10 9 9 12 6 4 12 16 20 21 22 24 23 26 31 30 26 23 18 16 16 14 8 7 13 13 13 13 6 5 4 4 4 1 3 6 7 6 6 7 6 6 5 3 1 1 3 5 6 5 8 9 5 7 5 2 5 7 6 10 12 13 13 6 14 14 15 18 21 25 26 29 31 30 30 29
16 15 14 14 13 12 12 13 12 12 14 10 6 8 10 12 9 7 10 12 23 27 24 25 25 29 36 35 32 26 16 13 16 16 9 8 15 13 11 11 6 4 3 2 2 1 2 6 7 5 6 6 3 2 4 3 3 3 2 3 5 4 6 7 5 5 3 2 4 8 5 10 14 13 12 7 9 15 25 30 30 31 30 29 31 32 34 32
16 15 15 14 13 12 11 12 12 12 12 6 3 6 8 11 11 10 7 8 21 26 21 24 26 30 35 36 32 23 15 13 15 18 13 11 17 18 12 9 6 5 3 3 5 3 4 6 7 7 6 5 3 3 3 2 2 3 3 3 6 3 2 5 4 4 4 1 5 8 5 8 11 9 10 8 8 14 28 35 34 37 39 37 38 39 40 39
16 16 15 14 13 11 10 11 11 10 8 4 4 5 5 9 11 13 8 6 12 15 14 18 21 28 33 29 23 17 18 17 15 18 17 14 17 17 12 8 6 5 4 6 8 7 8 8 4 6 6 6 5 5 4 4 3 4 5 6 6 4 5 7 5 5 6 4 4 4 5 6 6 6 9 5 5 11 21 26 23 29 36 37 37 37 39 42
16 16 15 14 13 11 10 10 8 7 7 5 5 5 4 8 11 13 8 3 6 8 8 9 11 19 22 16 13 15 15 16 19 21 20 19 20 13 8 9 7 5 6 7 7 6 10 9 5 6 5 6 6 6 5 6 4 4 6 10 10 8 9 10 7 4 5 5 4 1 4 5 6 6 8 5 4 7 13 17 18 24 30 30 31 32 34 38
16 16 15 14 13 11 8 5 5 7 6 4 4 5 4 6 9 10 4 2 4 5 3 2 5 5 7 10 14 13 5 9 20 23 20 20 23 16 7 6 5 4 7 6 4 3 6 6 6 6 6 6 6 6 5 8 4 5 6 10 12 11 10 11 8 2 1 4 4 3 3 5 7 6 7 5 4 5 8 12 16 25 31 30 32 35 35 37
15 16 15 13 12 11 7 4 5 6 3 2 5 5 5 5 6 8 3 3 4 5 0 1 3 2 2 10 18 14 2 4 10 18 26 22 21 21 10 4 3 4 5 4 2 3 4 5 5 6 6 5 5 6 6 10 6 5 6 8 10 10 10 10 7 5 4 4 3 3 4 2 6 6 6 5 7 6 5 10 12 22 32 32 33 37 38 40
15 15 14 12 10 10 8 6 5 4 3 5 6 6 5 5 5 4 3 2 4 3 1 1 2 4 4 9 22 15 1 4 4 12 28 24 18 18 10 6 7 6 6 6 4 4 3 6 6 6 6 4 6 7 8 11 6 9 7 8 8 8 8 8 6 5 3 2 4 5 2 1 5 5 5 5 7 6 4 9 9 16 28 32 32 34 37 40
14 14 14 12 10 9 8 7 5 3 5 5 6 5 5 3 2 2 4 1 4 2 2 2 4 7 3 9 20 14 3 2 2 8 23 23 20 17 7 9 11 6 6 6 6 6 2 6 8 7 5 5 8 9 8 13 8 9 4 5 4 3 4 4 5 4 0 1 6 6 2 2 5 5 5 5 5 2 2 5 7 14 22 29 31 32 34 37
14 13 13 13 10 8 7 7 5 5 5 3 4 3 4 4 2 4 2 3 2 4 6 6 8 11 5 4 8 11 6 3 3 9 16 16 21 17 5 8 9 3 2 2 5 6 4 5 4 4 6 7 9 8 8 15 13 4 3 3 3 1 1 1 2 3 2 2 8 8 6 5 3 5 2 1 2 3 5 4 6 12 18 24 28 30 34 35
13 11 12 13 10 8 7 6 4 6 5 2 2 1 6 3 4 4 2 4 2 5 8 6 8 13 7 2 5 7 4 4 3 8 8 6 11 11 1 2 4 2 2 4 4 6 6 4 3 5 11 9 6 6 5 11 11 3 3 2 2 3 3 3 4 3 2 5 8 7 6 7 4 5 3 2 3 5 8 9 11 15 18 23 25 28 32 33
10 9 11 11 9 7 6 6 7 8 7 3 2 2 6 3 2 3 3 5 3 3 5 5 8 11 10 6 4 5 3 2 1 4 4 3 5 7 4 4 5 2 2 5 3 5 5 5 3 4 10 9 5 4 3 1 4 5 3 4 3 2 1 1 3 1 2 6 6 3 3 5 5 5 5 7 6 5 10 10 10 15 21 25 27 28 29 31
7 8 9 7 5 5 4 5 7 8 7 3 1 3 5 4 1 4 3 3 1 3 4 5 10 12 9 6 3 4 3 2 1 2 3 3 4 6 6 4 5 4 3 4 2 2 4 6 4 2 5 7 8 4 3 1 3 6 5 5 5 2 1 1 4 2 3 6 4 3 1 2 4 3 6 10 8 4 5 6 5 8 16 21 25 27 27 29
6 6 4 1 3 4 2 2 5 6 5 3 2 4 5 3 4 3 2 3 3 4 5 6 11 12 6 3 3 2 2 0 1 2 2 3 4 4 4 3 5 4 2 2 2 3 2 4 4 4 3 3 6 7 7 5 5 5 5 5 5 4 4 2 4 3 4 4 3 4 0 1 2 3 5 6 6 9 11 11 8 5 7 16 23 26 26 26
5 3 3 4 4 5 5 3 1 2 3 5 5 5 3 3 3 1 2 4 2 4 8 9 7 6 5 4 5 3 2 0 1 2 2 2 5 4 4 5 5 4 4 2 2 2 3 5 7 6 4 3 3 6 6 6 2 3 2 5 3 4 5 2 3 5 3 1 2 3 1 1 2 4 5 5 6 11 14 15 17 15 8 7 13 21 26 25
3 1 5 5 4 4 6 7 5 4 6 7 5 3 3 3 2 2 1 2 2 5 9 9 4 2 4 5 5 7 4 1 1 1 1 1 2 2 3 3 4 5 5 4 2 0 1 5 7 5 4 5 6 5 3 4 3 1 2 3 3 4 7 3 2 1 2 1 2 1 1 3 3 3 5 6 7 8 10 10 12 14 15 12 8 4 18 23
1 2 6 5 4 3 5 7 6 5 5 6 5 2 4 2 3 3 2 4 5 5 4 4 3 2 3 3 4 6 4 3 1 0 1 1 2 2 1 1 0 3 4 4 2 2 2 4 6 4 6 9 8 4 3 2 4 4 3 4 2 3 5 3 1 2 3 2 3 1 0 3 1 1 5 6 6 7 8 8 7 9 16 17 12 10 6 14
3 5 5 6 6 5 4 5 5 4 4 5 2 2 2 2 3 3 5 6 5 3 1 1 2 1 2 3 4 6 4 3 2 1 0 1 1 1 0 1 3 4 3 1 2 2 1 3 7 4 4 8 6 2 2 5 1 4 4 3 3 3 0 1 2 1 1 2 2 3 2 1 2 3 3 5 6 6 7 7 7 4 11 17 11 4 4 7
5 5 5 5 6 5 4 3 2 3 4 4 1 2 2 3 5 8 10 8 2 1 1 3 3 1 2 3 3 4 4 2 1 1 1 0 1 2 2 2 0 3 6 4 3 1 1 0 6 5 3 5 5 3 1 5 4 2 1 1 1 3 3 2 3 3 3 3 1 1 2 2 4 3 1 2 4 5 6 7 6 6 6 16 16 9 6 8
4 4 4 5 6 6 5 3 1 3 3 1 2 3 2 2 5 10 13 8 3 2 2 3 2 2 3 3 2 3 3 1 0 1 1 1 1 2 2 2 1 1 2 5 3 0 3 2 3 6 6 5 3 0 4 4 1 2 1 1 2 1 3 2 1 2 3 4 3 2 0 4 4 1 1 0 4 6 6 6 5 6 3 12 16 15 12 12
4 3 3 6 7 6 5 4 1 2 2 1 1 2 3 2 3 8 10 6 3 3 2 3 2 2 2 3 3 3 3 2 1 1 1 1 1 1 2 5 3 1 1 4 2 0 1 1 2 4 5 4 5 4 2 5 6 5 3 2 1 2 3 2 2 1 2 3 4 5 2 5 4 1 2 3 6 6 8 8 6 6 4 11 15 16 14 14
4 3 3 7 8 7 5 3 1 1 2 1 3 3 5 4 3 4 6 4 3 2 2 2 1 2 2 2 2 3 3 2 2 1 1 1 3 2 3 4 4 3 3 1 1 2 2 3 1 3 3 5 8 6 4 1 8 8 3 2 1 2 3 4 4 3 1 3 2 3 2 4 4 1 3 5 6 10 13 11 9 8 7 14 17 15 14 14
3 4 4 6 8 7 3 1 4 2 1 3 4 4 6 4 1 3 4 3 2 1 1 1 1 1 1 2 2 3 2 2 3 2 1 2 2 3 4 2 0 2 3 1 1 1 2 2 0 4 4 4 6 6 5 3 4 7 3 3 3 1 1 4 5 3 3 3 2 3 1 4 2 2 4 7 11 15 16 13 13 13 11 13 18 16 14 13
3 5 6 8 10 7 2 0 1 2 3 4 3 4 6 3 1 3 3 3 4 2 0 1 1 1 1 2 1 2 2 1 3 3 1 1 3 4 6 5 1 2 2 1 2 2 1 0 1 1 3 4 4 4 5 5 3 4 2 3 3 4 3 2 1 3 2 3 4 5 2 4 0 3 5 8 12 14 15 16 18 18 16 16 17 17 18 16
4 4 5 8 12 8 3 2 3 2 3 2 3 4 5 3 4 6 2 3 6 2 1 2 3 2 2 2 2 3 2 2 1 3 2 3 4 7 11 10 6 3 3 4 3 5 3 1 3 3 2 3 3 3 4 3 2 2 2 3 6 7 5 2 2 3 1 3 4 5 3 3 2 4 6 8 9 10 13 18 21 19 17 17 18 19 20 20
4 2 1 3 8 7 4 2 2 2 2 1 2 2 3 2 6 9 4 4 8 7 3 3 4 2 2 4 4 3 4 2 2 2 3 4 3 5 11 12 10 7 6 9 9 3 3 3 2 4 4 5 5 4 4 1 2 2 1 4 7 5 3 2 4 2 3 3 3 1 4 6 6 6 6 7 9 10 11 15 18 17 19 21 20 21 21 22
4 1 2 2 2 3 1 2 0 2 2 1 2 2 3 2 4 6 4 3 6 7 4 3 5 4 2 3 2 2 5 4 3 4 3 4 2 3 10 12 11 10 8 9 9 4 4 4 3 2 2 2 1 2 4 4 4 4 3 4 6 6 6 7 3 2 1 4 2 3 7 9 8 8 7 7 9 9 9 12 14 16 20 24 24 22 23 24
3 1 2 3 2 2 1 1 1 2 1 2 2 1 2 3 3 2 3 4 5 6 4 3 6 5 4 3 2 1 5 4 3 3 2 4 4 4 8 11 9 8 6 6 7 4 4 2 3 3 3 4 5 5 6 5 4 5 6 6 7 7 8 8 1 4 0 3 4 7 9 7 6 7 6 7 10 11 12 14 16 20 24 26 26 26 25 25
4 3 2 3 2 2 2 3 3 4 4 2 2 1 1 2 3 2 2 2 4 5 3 1 5 6 6 4 3 2 2 1 1 3 1 4 5 3 4 5 8 6 5 4 3 3 3 2 1 1 2 6 7 6 6 6 4 5 7 8 8 6 6 7 3 1 4 3 4 10 10 4 4 5 6 11 17 19 19 19 20 22 25 27 29 29 29 28
4 3 1 3 3 2 1 2 3 4 3 3 2 2 1 1 2 4 2 1 1 4 2 2 5 6 3 2 3 2 2 4 3 3 1 3 4 2 2 2 5 5 5 2 2 3 2 2 1 0 2 4 6 6 6 5 6 6 9 11 12 10 6 6 5 4 6 7 7 11 9 5 4 7 12 18 22 21 20 18 18 20 23 28 31 31 30 30
5 3 2 4 3 5 3 2 3 3 2 3 0 2 2 1 2 3 3 2 3 2 1 1 4 5 2 2 2 2 5 5 6 8 6 2 3 4 2 3 3 4 4 1 1 3 2 2 1 3 2 1 4 5 5 4 6 7 9 11 12 9 5 4 3 2 3 8 10 9 6 3 3 8 14 17 18 17 17 16 15 17 22 28 29 29 30 31
3 3 4 5 3 5 4 3 3 3 1 2 3 3 2 4 4 3 2 3 1 1 2 2 3 3 3 3 4 7 10 10 13 16 11 7 9 11 12 13 11 6 2 1 1 2 2 3 2 2 2 1 3 3 3 3 3 3 5 7 7 5 4 5 4 4 2 5 8 5 4 5 6 9 12 12 11 12 14 16 14 15 22 28 30 29 29 30
Wind_Direction
349 351 352 352 356 355 354 353 347 344 341 340 342 342 341 335 329 320 309 303 300 300 300 300 302 307 313 312 314 314 314 313 313 310 301 303 293 268 267 265 246 234 228 217 213 211 207 199 189 187 187 183 190 191 191 204 194 176 127 145 225 231 226 195 189 213 231 283 311 320 336 357 332 338 43 90 105 106 114 97 137 188 205 172 172 166 167 166
342 342 341 340 340 339 341 343 344 343 338 336 336 335 336 334 331 327 319 311 302 299 296 297 300 302 306 307 312 314 314 315 313 308 303 333 326 275 263 260 251 236 231 226 219 212 210 199 187 187 185 178 186 185 188 204 193 184 131 159 228 220 229 211 212 260 284 292 304 305 318 341 321 319 312 49 71 93 94 74 104 129 135 153 160 162 165 166
336 336 334 333 332 330 329 329 332 331 330 330 327 326 326 324 325 324 323 319 309 302 297 297 298 300 303 303 309 313 316 318 316 306 180 36 11 336 269 253 248 234 226 225 219 211 214 198 188 185 181 180 184 180 185 190 186 194 177 206 241 222 258 273 266 276 287 287 293 299 308 320 312 310 204 160 92 90 135 135 122 130 142 150 157 160 164 167
332 331 330 329 327 326 323 323 322 320 321 321 322 320 315 313 314 317 320 320 315 308 301 298 296 299 299 300 308 313 320 323 318 163 130 36 22 11 309 247 238 228 219 221 214 199 196 185 184 184 179 190 198 196 210 197 189 189 181 218 241 210 267 272 274 279 284 284 280 290 305 310 310 308 192 149 104 335 230 181 169 162 157 155 158 160 165 168
329 328 328 326 325 324 321 320 318 318 317 315 316 312 311 309 307 310 315 318 318 314 308 303 299 298 297 300 305 311 326 335 117 130 77 27 32 21 12 241 225 223 219 219 206 188 183 173 173 179 180 197 200 204 233 213 209 202 216 238 249 244 264 274 284 286 284 287 289 293 299 296 310 304 179 158 142 230 215 196 185 175 167 162 163 162 165 170
326 326 326 325 325 323 320 318 317 316 314 313 311 308 308 306 306 308 309 314 317 318 315 309 305 301 299 300 303 309 321 293 224 299 300 306 0 21 31 16 222 228 220 210 201 184 178 171 169 176 175 193 214 208 243 232 218 243 259 250 256 253 252 278 287 288 287 290 292 284 286 293 305 279 196 181 200 237 216 201 187 175 168 166 165 165 169 174
323 323 323 325 325 322 320 317 315 314 312 310 307 306 305 303 304 303 305 309 310 315 316 314 313 307 303 302 304 307 294 275 276 275 271 273 236 352 16 349 257 246 228 211 202 185 181 178 173 173 154 173 227 215 254 264 229 220 267 266 269 265 260 277 281 284 285 281 281 283 290 293 277 268 227 211 233 254 230 204 183 167 162 164 166 169 175 176
323 323 323 325 324 322 320 316 314 312 309 307 306 304 302 300 300 299 303 303 302 306 307 311 316 311 310 308 308 306 292 283 263 214 235 202 182 298 327 303 290 263 241 220 209 191 185 182 179 176 146 210 222 230 260 278 254 216 246 266 275 273 269 277 279 281 283 281 284 287 287 277 270 263 204 227 244 238 212 193 174 162 162 166 170 173 175 175
323 322 324 324 323 323 319 317 313 310 309 307 305 301 300 299 297 298 299 298 298 298 299 304 308 309 311 308 311 309 296 289 225 213 197 176 183 286 302 295 288 272 254 226 211 196 191 187 186 180 164 232 234 260 267 266 256 220 231 255 267 273 276 280 279 278 282 283 284 285 277 275 278 273 203 231 221 194 182 173 166 162 164 169 173 175 176 179
321 320 322 321 320 320 316 314 310 308 308 306 305 302 300 298 296 297 297 297 296 293 296 297 300 303 302 304 312 304 294 285 182 205 185 183 199 258 297 306 296 287 266 231 212 204 201 194 190 185 196 256 239 260 258 201 246 259 259 268 270 273 279 279 276 275 279 283 276 258 261 273 275 260 246 193 166 175 165 158 163 164 167 173 176 179 183 186
319 319 319 317 316 314 310 308 306 305 305 305 305 303 301 299 298 297 296 297 294 294 295 293 297 297 295 294 271 253 286 260 204 206 191 191 203 241 284 301 297 292 277 250 227 216 207 197 188 182 204 267 272 282 262 228 262 279 289 292 288 287 285 273 266 272 272 280 270 242 246 274 274 224 235 185 169 176 164 157 163 167 171 177 181 184 186 186
319 317 315 314 312 309 307 306 304 303 303 304 304 303 303 301 299 297 296 296 294 295 294 294 297 293 294 285 266 255 280 259 234 226 203 195 205 228 258 274 282 286 285 276 252 227 207 197 191 188 212 259 320 321 293 299 302 291 294 302 301 315 303 266 250 258 245 253 267 239 254 287 277 247 237 177 169 170 163 161 164 171 176 181 184 184 182 181
319 316 313 311 308 306 304 303 302 302 302 304 303 303 303 301 299 297 296 294 293 295 295 297 294 294 294 276 268 265 271 268 259 246 225 211 215 219 235 252 264 270 273 278 279 241 209 200 199 210 239 281 297 294 294 305 307 292 285 279 311 330 306 267 248 253 232 247 254 193 231 283 263 261 242 169 167 161 156 164 167 173 180 183 184 180 177 181
319 317 314 310 307 304 301 300 300 299 301 303 303 303 301 299 298 297 297 295 293 294 296 297 295 296 282 268 279 291 278 266 253 246 235 223 224 223 229 244 253 249 248 258 285 259 216 208 212 231 261 274 274 288 300 306 308 311 303 291 319 298 280 293 305 277 258 269 222 159 212 265 258 266 242 174 170 164 160 168 171 176 183 183 182 178 178 184
321 320 318 315 311 306 302 300 298 299 301 302 303 303 300 297 296 297 296 293 291 292 295 295 292 293 281 280 287 290 279 266 252 249 238 225 225 227 229 234 239 230 234 249 269 270 227 216 219 240 268 271 270 282 318 331 340 2 284 287 315 215 268 305 302 235 229 269 193 153 227 268 256 267 245 183 175 173 168 170 174 179 183 181 178 175 178 186
323 323 323 320 316 310 305 301 299 301 302 303 305 303 299 296 295 294 291 289 290 291 292 287 283 286 288 291 290 271 284 284 275 270 237 219 222 229 224 226 232 224 233 246 255 253 231 224 229 244 258 264 242 202 331 333 322 0 222 257 287 269 300 320 307 254 220 251 268 174 221 270 263 269 253 184 180 180 170 172 176 178 180 179 174 173 178 184
323 324 324 323 320 315 310 305 304 303 304 305 306 304 299 296 294 291 286 285 286 287 283 270 274 285 271 271 271 267 287 303 312 312 243 212 216 222 208 218 231 231 240 250 256 252 241 233 233 248 252 240 140 136 347 281 270 323 355 272 262 257 283 301 306 310 292 190 269 261 224 254 263 272 267 184 186 185 175 176 173 173 178 175 169 173 182 185
322 322 323 324 321 319 314 312 309 307 307 308 312 312 307 308 306 294 285 280 278 284 271 242 218 315 271 263 271 265 254 251 307 315 296 222 210 210 206 214 230 239 242 249 253 242 236 233 211 246 275 203 119 118 179 229 203 205 305 284 282 277 267 266 273 307 354 11 270 308 285 269 270 270 270 195 190 190 186 178 167 173 176 167 165 172 180 186
320 320 321 321 321 320 316 315 313 311 312 314 324 324 327 342 332 316 315 288 228 186 254 222 190 216 272 275 281 273 259 271 286 291 290 243 211 209 212 219 234 237 220 210 242 215 204 218 209 240 252 210 190 164 194 204 148 158 196 188 252 289 277 265 256 268 336 342 291 292 276 274 280 272 273 201 189 197 193 164 158 171 169 160 163 169 177 185
317 317 318 318 320 320 317 316 312 313 317 324 345 355 7 4 351 354 344 301 261 258 271 260 244 255 268 270 275 283 284 281 283 277 277 256 218 207 211 221 233 231 192 157 215 205 178 206 240 225 201 178 196 199 200 205 126 323 278 255 259 272 276 274 274 281 320 328 282 279 273 276 277 272 277 205 183 198 184 143 160 171 161 160 162 166 175 181
315 313 315 317 319 320 317 312 308 313 319 326 1 26 28 15 4 323 324 304 284 277 271 269 264 262 266 266 269 280 292 293 279 259 257 245 211 197 204 211 210 224 220 180 199 221 161 214 237 209 182 181 199 199 192 219 292 277 269 289 284 263 271 278 278 279 284 254 265 285 293 283 272 269 274 201 163 192 177 153 171 171 160 163 162 165 174 177
313 311 313 315 317 321 316 309 306 310 316 320 1 26 27 21 15 326 309 296 291 287 275 270 262 259 263 264 264 268 275 286 273 250 235 208 199 193 190 188 183 213 219 152 194 281 220 238 244 207 181 185 215 191 175 210 232 228 237 280 276 274 294 289 279 282 280 144 273 293 293 276 274 273 272 230 175 194 185 174 178 170 159 161 163 166 172 172
313 311 313 314 316 320 315 307 303 306 312 310 338 10 19 13 11 349 309 270 289 290 276 265 253 250 256 259 258 254 245 251 255 244 227 193 194 195 182 175 184 194 169 162 192 208 237 251 235 207 173 162 247 255 186 230 247 219 203 223 260 281 323 285 291 328 323 273 263 288 298 277 284 293 284 254 192 185 187 184 181 172 166 167 170 172 171 169
313 312 313 315 315 317 315 305 303 309 308 294 306 328 2 0 1 354 330 262 286 290 277 271 256 246 250 255 253 232 223 231 233 230 221 197 189 192 192 181 165 178 192 187 188 204 239 244 186 160 159 169 227 254 210 228 259 233 209 215 247 259 239 245 274 322 323 302 236 276 324 295 297 311 298 292 137 162 182 180 172 169 169 170 173 175 175 174
314 314 315 317 315 315 317 304 299 316 307 293 299 291 329 351 347 346 338 290 290 285 287 283 252 246 246 247 238 213 214 228 227 222 213 203 195 185 192 189 167 195 207 185 180 212 245 243 164 143 170 176 205 245 215 194 234 267 226 213 221 234 240 248 269 310 344 319 249 115 16 297 301 305 289 313 101 151 172 161 154 163 168 169 173 177 178 178
315 316 318 319 316 316 319 299 297 319 310 288 289 282 303 329 335 338 346 26 316 274 300 275 229 259 238 210 200 187 188 244 235 223 208 207 204 191 181 179 170 205 195 171 178 221 241 221 171 176 189 175 198 243 216 171 190 267 236 204 208 218 233 248 254 226 180 272 259 90 96 264 305 313 295 329 79 132 161 156 154 163 169 172 175 178 178 177
317 317 319 319 317 318 318 301 302 315 308 277 284 275 283 301 326 336 356 34 315 263 322 210 224 2 283 208 180 160 136 246 225 212 200 201 202 195 196 178 162 206 175 131 222 239 205 184 183 192 182 176 208 241 207 158 156 250 217 175 195 211 222 237 230 200 222 260 301 31 119 214 296 284 292 353 67 86 133 159 157 164 172 175 175 176 177 175
318 317 317 316 315 316 314 309 311 305 271 288 296 269 266 281 300 337 56 54 299 275 66 210 257 348 316 201 179 172 193 164 152 205 198 194 192 189 197 192 178 202 175 140 214 248 173 181 200 193 183 192 216 229 191 152 169 251 216 168 193 210 214 222 202 206 244 281 301 311 114 183 276 274 318 13 75 81 143 170 169 170 173 174 174 176 178 175
316 316 313 311 309 307 307 310 311 286 270 298 316 274 240 235 273 38 82 41 296 317 2 28 6 342 345 170 189 207 262 154 119 190 188 191 196 192 202 205 190 199 195 171 213 240 219 204 196 165 172 208 228 235 178 157 204 253 209 171 206 201 204 205 170 179 225 263 261 265 173 178 270 287 334 20 54 36 215 190 183 177 176 175 174 177 178 177
314 314 308 305 308 304 302 309 289 254 258 307 340 273 191 162 78 69 100 254 283 340 355 22 5 340 355 131 219 243 265 305 46 139 170 189 198 199 210 205 189 163 214 240 240 248 269 241 202 160 196 217 231 240 183 181 210 231 99 173 239 352 30 42 107 120 103 255 257 246 189 165 263 285 277 83 0 266 216 198 194 183 180 180 178 176 177 181
313 311 302 302 309 307 304 306 263 239 245 261 350 100 148 123 58 101 195 266 294 338 354 7 350 343 341 294 257 249 256 295 59 122 156 174 187 199 199 171 183 90 344 294 281 295 308 271 235 217 225 221 226 251 205 193 208 194 89 144 213 317 7 23 359 52 126 246 260 250 181 152 202 266 282 294 299 246 200 185 185 184 182 181 178 176 177 180
313 300 296 302 311 314 302 278 241 237 245 247 0 77 131 86 21 176 249 318 347 334 345 340 330 333 319 296 248 215 199 236 194 117 150 146 160 193 191 179 185 138 277 256 270 314 297 255 254 249 237 214 196 271 289 185 170 158 129 105 124 293 345 350 304 315 212 243 256 261 144 149 210 246 312 326 327 275 224 210 198 188 182 177 174 176 177 176
306 291 296 304 324 333 299 265 244 239 248 242 25 50 96 87 234 226 278 318 322 310 325 328 320 317 311 315 288 216 175 180 230 120 139 133 150 200 215 203 171 156 227 224 206 282 294 294 294 283 259 210 175 205 271 267 152 157 161 142 149 168 107 264 272 272 257 248 266 297 183 221 258 274 330 331 334 317 213 214 245 210 184 173 171 173 174 172
298 298 297 280 28 16 346 271 246 238 244 214 111 65 84 123 232 250 305 264 267 314 331 331 315 314 321 322 306 268 143 45 330 100 99 111 146 210 242 230 183 162 187 180 166 193 215 303 267 200 241 223 180 198 196 174 165 175 168 139 143 156 150 204 228 218 253 254 301 328 270 180 243 274 321 337 8 46 80 100 93 98 160 166 165 166 168 172
303 302 168 144 88 61 57 60 187 212 189 159 98 71 124 197 251 245 265 265 296 327 323 323 311 315 337 327 321 350 85 107 338 65 56 135 164 198 214 219 208 154 132 172 228 180 170 249 253 233 247 256 239 223 170 133 153 222 147 112 140 181 156 153 198 190 205 237 343 339 259 213 225 260 323 8 40 51 63 81 87 79 80 130 159 164 165 170
328 145 168 160 124 91 62 63 78 102 149 144 90 71 187 212 225 170 230 301 321 320 323 328 328 342 335 336 335 344 21 70 233 80 52 215 201 220 199 211 215 172 147 161 212 220 160 255 272 307 302 251 242 241 187 164 190 199 131 161 209 167 132 126 232 228 82 170 276 344 253 303 319 295 331 14 37 48 52 60 79 88 87 70 37 143 162 164
21 136 173 175 167 139 80 72 81 101 138 122 93 187 215 227 208 193 298 319 298 303 346 347 327 326 330 349 324 313 348 18 326 270 219 265 321 290 281 339 47 162 167 163 188 221 209 271 284 306 297 276 268 261 258 223 147 133 183 205 188 90 91 111 177 3 39 217 268 13 270 300 14 284 317 9 32 39 44 37 45 87 102 91 48 24 98 145
104 122 146 166 186 183 124 92 84 91 108 95 84 228 212 240 241 250 295 309 304 308 33 234 270 299 336 338 301 292 324 350 339 10 239 281 298 257 288 335 28 37 11 124 150 218 192 291 293 277 259 288 312 32 319 315 74 146 181 173 121 109 82 99 145 176 128 203 285 351 347 287 183 220 311 17 33 38 44 29 1 17 97 105 100 41 25 122
107 119 119 140 184 185 146 131 113 73 68 79 104 244 212 242 264 279 287 291 287 282 255 223 234 294 317 293 268 291 324 324 327 45 120 206 241 188 151 191 213 33 22 57 125 204 55 327 286 292 281 303 337 53 315 304 335 28 126 120 80 135 161 177 160 166 160 163 227 332 357 287 225 220 270 357 29 41 48 42 359 328 86 111 130 160 176 152
118 122 115 136 168 172 157 172 155 69 62 100 187 220 246 252 263 287 298 293 239 229 253 233 240 284 294 298 291 299 317 329 72 158 205 204 250 234 186 185 217 209 41 54 99 213 27 81 261 301 323 322 320 157 185 193 34 17 103 27 332 101 128 168 152 113 141 152 168 153 260 266 250 250 279 12 71 56 36 47 28 340 48 119 134 145 154 158
126 103 121 151 164 174 167 168 166 63 92 196 208 216 264 268 257 296 314 306 245 242 253 246 261 274 287 324 325 308 321 347 34 167 231 241 206 257 212 184 179 195 55 33 36 206 10 110 223 309 340 321 270 258 208 157 124 117 127 67 270 186 132 151 247 303 108 131 157 156 185 265 269 317 19 68 96 79 44 42 39 16 67 116 130 143 152 154
130 85 128 161 175 190 171 142 324 15 134 241 271 256 277 284 270 301 315 306 266 255 261 255 267 284 283 287 288 307 337 348 342 305 249 237 194 221 256 195 171 155 136 124 257 182 126 103 103 284 279 257 262 285 312 162 113 103 94 48 69 161 112 141 208 246 99 96 129 120 114 267 268 355 62 73 95 86 67 57 48 40 77 109 120 139 150 147
124 88 133 167 183 191 173 49 338 335 228 277 289 287 296 295 289 318 316 323 318 295 339 337 318 339 291 264 296 336 351 2 354 337 279 294 249 252 307 326 349 52 93 137 275 59 78 87 12 290 295 295 286 300 311 291 94 82 40 24 41 321 259 176 183 178 141 146 132 90 80 264 278 50 86 99 101 91 79 74 67 49 48 84 103 117 128 137
122 100 137 170 185 192 197 254 295 304 283 300 332 333 327 316 320 335 320 328 332 315 57 335 315 356 311 288 329 331 318 78 21 353 3 355 327 343 10 27 33 25 59 173 203 123 78 270 128 23 338 340 327 313 311 319 47 84 55 12 16 358 342 278 176 87 117 191 150 128 198 252 270 78 94 100 102 96 83 79 76 58 40 50 74 92 104 115
125 108 139 174 191 207 261 218 182 206 266 322 359 340 339 331 337 350 344 338 348 355 117 331 320 317 319 344 6 325 325 104 58 343 12 353 335 1 20 37 58 62 56 41 70 135 140 135 128 126 176 203 210 227 252 288 0 76 86 34 19 20 11 303 155 105 182 207 123 127 189 215 124 106 103 100 99 95 84 80 81 75 62 57 63 76 91 101
125 113 133 173 198 216 252 248 169 156 205 49 31 333 344 321 331 352 15 31 10 8 29 5 342 346 10 19 17 337 337 4 12 25 24 349 334 347 360 22 51 63 64 41 28 79 119 62 83 125 151 182 202 229 249 258 50 22 3 32 28 21 19 72 114 141 206 166 104 167 177 149 142 138 120 102 96 95 89 85 86 88 87 83 76 75 82 90
113 124 150 129 206 224 288 308 82 128 205 131 96 325 333 307 313 348 13 24 5 3 27 38 14 19 5 1 23 342 329 336 8 32 8 339 325 328 352 18 41 46 55 40 19 40 102 48 14 61 108 158 198 318 346 32 67 37 351 12 26 24 41 63 81 268 227 130 142 216 165 147 154 157 137 111 104 103 96 93 97 99 98 97 93 87 85 86
98 121 144 137 195 212 66 275 177 100 66 105 100 327 338 355 342 338 336 341 359 13 32 12 4 9 330 319 110 66 330 337 7 8 357 354 346 344 6 7 354 358 32 36 23 63 113 68 354 1 27 24 17 18 29 51 73 47 22 11 11 27 56 67 5 274 251 147 192 173 154 147 145 144 130 108 107 102 95 101 106 103 100 100 98 94 89 87
104 112 120 121 170 194 159 177 149 76 47 36 26 347 331 0 339 276 270 341 354 357 49 61 330 334 328 338 99 100 336 30 357 318 334 15 355 3 30 344 306 327 33 49 22 56 99 92 318 295 41 29 14 14 41 58 67 38 20 9 3 16 68 79 53 3 75 95 141 133 124 98 92 112 93 92 102 103 102 105 107 103 102 99 96 94 91 89
107 111 131 112 84 37 93 152 108 70 29 5 358 305 288 0 325 293 278 107 328 314 45 97 305 305 305 358 82 118 205 174 184 246 235 32 2 6 65 249 271 326 17 50 13 12 60 120 192 68 66 30 13 17 29 56 80 51 16 5 2 3 29 57 43 41 66 81 100 110 105 68 58 90 93 96 101 103 101 101 102 105 106 101 96 95 93 92
105 97 119 125 65 6 15 51 69 82 29 5 310 273 311 289 278 299 281 223 197 241 281 279 289 295 309 2 45 223 233 209 212 234 234 227 258 260 253 238 269 337 351 11 22 19 58 119 114 62 70 347 0 13 356 14 67 55 20 2 354 355 1 354 350 10 94 118 120 114 111 119 112 101 97 96 96 96 96 96 98 105 106 102 99 97 94 94
119 111 118 123 80 4 17 38 44 77 72 305 267 245 265 277 301 3 334 280 243 148 322 294 260 289 322 332 312 296 293 285 278 281 278 254 248 255 258 259 260 257 223 152 66 58 99 116 103 78 105 293 331 355 339 356 33 21 355 346 329 318 318 319 338 3 24 124 138 142 134 141 143 119 103 94 90 91 96 100 103 105 103 101 100 98 95 93